User: anonymous   Login
Location: Kelshall
(52.0000°N, 0.0500°W)
Time: 11:43:25
(UTC+00:00)
Language:

Cosmos 1674 - Orbit

View from above orbital plane
View from above orbital plane
View from above satellite
View from above satellite

Ground track
Ground track

The orbit data is extracted from the following two-line orbital elements,

1 15944U 85069A   21135.85671542  .00001011  00000-0  44787-4 0  9998
2 15944  82.5080 251.9694 0016456 188.2926 171.8040 15.20349116954676
Epoch (UTC): 15 May 2021 20:33:40
Eccentricity: 0.0016456
inclination: 82.5080°
perigee height: 493 km
apogee height: 516 km
right ascension of ascending node: 251.9694°
argument of perigee: 188.2926°
revolutions per day: 15.20349116
mean anomaly at epoch: 171.8040°
orbit number at epoch: 95467

The dashed part of the orbit path shows where the satellite is in the earth's shadow,  

DLR